STARLINK-1190 (45083 NORAD) Tracking and Keplerian Element Data

This shows tracking and keplerian element data for the satellite.

Feedback or suggestion? Click here.




ElementValue
Catalog45083
NameSTARLINK-1190
Epoch Orbit324
Epoch Day47.91667824
Epoch Year2020
RAAN145.1451
Inclination52.9969
Eccentricity0.0001901
Argument of Perigee50.7899
Mean Anonmoly188.9938
Mean Motion15.60711744
Decay Rate0.01494776
L11 45083U 20006AR 20047.91667824 .01494776 00000-0 15754-1 0 9995
L22 45083 52.9969 145.1451 0001901 50.7899 188.9938 15.60711744 3243

Live tracking and technical data element details for STARLINK-1190 (NORAD 45083). STARLINK-1190 can be tracked NOW for your location showing map with azimuth and elevation plus other details from your city location.

Track the satellite on the map from your city or location and see movement details for azimuth, elevation, latitude, longitude, range, height, and movement on the map or in text.







IsCatalogInMostPopularTable: catalog: 45083, numindb: 1
Update: records affected: 1



GetName: 45083 STARLINK-1190

Hit Count: updated at: Tue, 18 Feb 2020 00:33:49 GMT